Location: Rehoboth Beach
(38.7438°N, 75.1341°W)
Time: 08:06:15
(UTC-04:00)

Hubble Space Telescope - Visible Passes

Search period start: 24 August 2016 00:00
Search period end: 03 September 2016 00:00
Orbit: 539 x 543 km, 28.5° (Epoch: 24 August)

Date Brightness Start Highest point End Pass type
(mag) Time Alt. Az. Time Alt. Az. Time Alt. Az.
24 Aug 2.7 21:09:11 10° SW 21:11:41 16° SSW 21:12:19 15° S visible
25 Aug 2.9 20:59:39 10° SW 21:01:49 14° SSW 21:03:00 13° S visible
26 Aug 3.1 20:50:17 10° SW 20:51:57 12° SSW 20:53:35 10° S visible
27 Aug 3.3 20:41:37 10° SSW 20:42:03 10° SSW 20:42:30 10° SSW visible
